This is the latest recevied weather packets stored in our database for station/object IN3XSV-13. If no packets are shown the sender has not sent any weather packets the latest 10 day(s).
| Time | Temp. | Humidity | Pressure | Rain* | Wind** | Luminosity | Snow |
|---|---|---|---|---|---|---|---|
| 1788001362 | 33.89° C | 39% | 1008.5 hPa | 0 mm | - | - | - |
| 1788001062 | 33.89° C | 39% | 1008.6 hPa | 0 mm | - | - | - |
| 1788000762 | 33.89° C | 39% | 1008.8 hPa | 0 mm | - | - | - |
| 1788000462 | 33.89° C | 40% | 1008.7 hPa | 0 mm | - | - | - |
| 1788000162 | 34.44° C | 39% | 1008.8 hPa | 0 mm | - | - | - |
| 1787999862 | 33.89° C | 40% | 1008.9 hPa | 0 mm | - | - | - |
| 1787999562 | 33.89° C | 40% | 1009 hPa | 0 mm | - | - | - |
| 1787999262 | 33.89° C | 40% | 1008.9 hPa | 0 mm | - | - | - |
| 1787998962 | 33.89° C | 41% | 1009.1 hPa | 0 mm | - | - | - |
| 1787998662 | 32.78° C | 42% | 1009.2 hPa | 0 mm | - | - | - |
| 1787998362 | 32.22° C | 42% | 1009.1 hPa | 0 mm | - | - | - |
| 1787998062 | 32.22° C | 41% | 1009.2 hPa | 0 mm | - | - | - |
| 1787997762 | 32.22° C | 42% | 1009.1 hPa | 0 mm | - | - | - |
| 1787997462 | 32.78° C | 41% | 1009.4 hPa | 0 mm | - | - | - |
| 1787997162 | 32.78° C | 41% | 1009.3 hPa | 0 mm | - | - | - |
| 1787996862 | 32.78° C | 43% | 1009.3 hPa | 0 mm | - | - | - |
| 1787996562 | 32.78° C | 42% | 1009.3 hPa | 0 mm | - | - | - |
| 1787996262 | 32.78° C | 43% | 1009.3 hPa | 0 mm | - | - | - |
| 1787995962 | 32.78° C | 42% | 1009.3 hPa | 0 mm | - | - | - |
| 1787995662 | 32.78° C | 43% | 1009.3 hPa | 0 mm | - | - | - |
| 1787995362 | 32.22° C | 44% | 1009.3 hPa | 0 mm | - | - | - |
| 1787995062 | 32.22° C | 44% | 1009.5 hPa | 0 mm | - | - | - |
| 1787994762 | 31.67° C | 44% | 1009.5 hPa | 0 mm | - | - | - |
| 1787994462 | 31.67° C | 44% | 1009.6 hPa | 0 mm | - | - | - |
| 1787994162 | 31.67° C | 45% | 1009.6 hPa | 0 mm | - | - | - |
* Rain latest hour (hover to see other rain measurements)
** Current wind speed in m/s (hover to see current wind gust speed)